When you browse on this site, cookies collect data to enhance your experience and personalize the content and advertising you see.
Visit our Privacy Policy to learn more. By continuing to use the site, you agree to this use of cookies and data.
  • In Lithuania
  • List of Countries
  • For 7 days
  • Water Temperature
  • Weather Map
  • Weather Widgets
  • user-avatar
    Login

    Hourly Weather Taba

    Today, 24 February, Monday

    Time Temperature Precipitation Wind Pressure Humidity
    00:00 +9°C° 0 mm 3 mps 691 mmHg 74%
    01:00 +8°C° 0 mm 2 mps 691 mmHg 75%
    02:00 +8°C° 0 mm 2 mps 690 mmHg 76%
    03:00 +9°C° 0 mm 1 mps 690 mmHg 76%
    04:00 +8°C° 0 mm 1 mps 690 mmHg 77%
    05:00 +8°C° 0 mm 1 mps 690 mmHg 78%
    06:00 +9°C° 0 mm 1 mps 690 mmHg 74%
    07:00 +9°C° 0 mm 1 mps 690 mmHg 70%
    08:00 +10°C° 0 mm 1 mps 690 mmHg 66%
    09:00 +11°C° 0 mm 1 mps 691 mmHg 60%
    10:00 +12°C° 0 mm 1 mps 691 mmHg 55%
    11:00 +14°C° 0 mm 2 mps 691 mmHg 50%
    12:00 +14°C° 0 mm 2 mps 690 mmHg 47%
    13:00 +15°C° 0 mm 2 mps 690 mmHg 45%
    14:00 +15°C° 0 mm 2 mps 689 mmHg 42%
    15:00 +13°C° 0.7 mm 3 mps 689 mmHg 52%
    16:00 +12°C° 0.7 mm 4 mps 689 mmHg 62%
    17:00 +10°C° 0.7 mm 4 mps 689 mmHg 72%
    18:00 +10°C° 1.2 mm 4 mps 689 mmHg 74%
    19:00 +8°C° 1.2 mm 5 mps 689 mmHg 76%
    20:00 +7°C° 1.2 mm 5 mps 689 mmHg 78%
    21:00 +7°C° 0.6 mm 5 mps 689 mmHg 79%
    22:00 +7°C° 0.6 mm 5 mps 690 mmHg 80%
    23:00 +7°C° 0.6 mm 5 mps 690 mmHg 81%

    Tomorrow, 25 February, Tuesday

    Time Temperature Precipitation Wind Pressure Humidity
    00:00 +5°C° 0.9 mm 6 mps 689 mmHg 82%
    01:00 +5°C° 0.9 mm 6 mps 689 mmHg 83%
    02:00 +4°C° 0.9 mm 6 mps 689 mmHg 83%
    03:00 +4°C° 0.3 mm 6 mps 689 mmHg 83%
    04:00 +4°C° 0.3 mm 6 mps 689 mmHg 83%
    05:00 +4°C° 0.3 mm 6 mps 689 mmHg 83%
    06:00 +4°C° 0.1 mm 7 mps 689 mmHg 81%
    07:00 +5°C° 0.1 mm 7 mps 690 mmHg 80%
    08:00 +5°C° 0.1 mm 8 mps 690 mmHg 79%
    09:00 +6°C° 0.3 mm 8 mps 690 mmHg 76%
    10:00 +7°C° 0.3 mm 8 mps 691 mmHg 73%
    11:00 +7°C° 0.3 mm 8 mps 691 mmHg 69%
    12:00 +9°C° 0.1 mm 8 mps 691 mmHg 66%
    13:00 +10°C° 0.1 mm 9 mps 691 mmHg 62%
    14:00 +11°C° 0.1 mm 9 mps 691 mmHg 59%
    15:00 +11°C° 0 mm 9 mps 691 mmHg 61%
    16:00 +11°C° 0 mm 9 mps 692 mmHg 63%
    17:00 +11°C° 0 mm 9 mps 692 mmHg 65%
    18:00 +10°C° 0 mm 8 mps 693 mmHg 69%
    19:00 +9°C° 0 mm 7 mps 693 mmHg 73%
    20:00 +8°C° 0 mm 6 mps 693 mmHg 77%
    21:00 +8°C° 0 mm 5 mps 694 mmHg 79%
    22:00 +8°C° 0 mm 3 mps 694 mmHg 81%
    23:00 +8°C° 0 mm 2 mps 694 mmHg 84%

    Day after tomorrow, 26 February, Wednesday

    Time Temperature Precipitation Wind Pressure Humidity
    00:00 +8°C° 0 mm 2 mps 693 mmHg 84%
    01:00 +7°C° 0 mm 2 mps 693 mmHg 84%
    02:00 +8°C° 0 mm 1 mps 693 mmHg 84%
    03:00 +8°C° 0 mm 1 mps 693 mmHg 84%
    04:00 +7°C° 0 mm 1 mps 694 mmHg 85%
    05:00 +7°C° 0 mm 1 mps 694 mmHg 85%
    06:00 +8°C° 0 mm 1 mps 694 mmHg 80%
    07:00 +9°C° 0 mm 1 mps 695 mmHg 75%
    08:00 +10°C° 0 mm 1 mps 695 mmHg 69%
    09:00 +11°C° 0 mm 1 mps 695 mmHg 59%
    10:00 +13°C° 0 mm 1 mps 696 mmHg 49%
    11:00 +14°C° 0 mm 2 mps 696 mmHg 40%
    12:00 +15°C° 0 mm 2 mps 695 mmHg 37%
    13:00 +16°C° 0 mm 2 mps 695 mmHg 34%
    14:00 +17°C° 0 mm 2 mps 695 mmHg 31%
    15:00 +17°C° 0 mm 3 mps 695 mmHg 32%
    16:00 +17°C° 0 mm 3 mps 695 mmHg 33%
    17:00 +16°C° 0 mm 3 mps 695 mmHg 35%
    18:00 +14°C° 0 mm 3 mps 695 mmHg 39%
    19:00 +14°C° 0 mm 2 mps 695 mmHg 44%
    20:00 +13°C° 0 mm 2 mps 695 mmHg 49%
    21:00 +13°C° 0 mm 1 mps 695 mmHg 51%
    22:00 +12°C° 0 mm 1 mps 695 mmHg 52%
    23:00 +11°C° 0 mm 1 mps 695 mmHg 54%

    27 February, Thursday

    Time Temperature Precipitation Wind Pressure Humidity
    00:00 +11°C° 0 mm 1 mps 695 mmHg 54%
    01:00 +11°C° 0 mm 1 mps 694 mmHg 54%
    02:00 +10°C° 0 mm 1 mps 694 mmHg 54%
    03:00 +10°C° 0 mm 1 mps 694 mmHg 53%
    04:00 +10°C° 0 mm 1 mps 694 mmHg 53%
    05:00 +9°C° 0 mm 1 mps 694 mmHg 53%
    06:00 +11°C° 0 mm 1 mps 694 mmHg 48%
    07:00 +12°C° 0 mm 1 mps 695 mmHg 43%
    08:00 +14°C° 0 mm 1 mps 695 mmHg 39%
    09:00 +16°C° 0 mm 1 mps 695 mmHg 34%
    10:00 +17°C° 0 mm 2 mps 695 mmHg 30%
    11:00 +19°C° 0 mm 2 mps 696 mmHg 26%
    12:00 +20°C° 0 mm 2 mps 695 mmHg 24%
    13:00 +21°C° 0 mm 2 mps 695 mmHg 22%
    14:00 +22°C° 0 mm 1 mps 694 mmHg 20%
    15:00 +21°C° 0 mm 2 mps 694 mmHg 21%
    16:00 +20°C° 0 mm 2 mps 694 mmHg 23%
    17:00 +20°C° 0 mm 3 mps 694 mmHg 25%
    18:00 +19°C° 0 mm 2 mps 694 mmHg 30%
    19:00 +18°C° 0 mm 2 mps 694 mmHg 34%
    20:00 +16°C° 0 mm 2 mps 694 mmHg 39%
    21:00 +16°C° 0 mm 1 mps 694 mmHg 41%
    22:00 +15°C° 0 mm 1 mps 694 mmHg 43%
    23:00 +15°C° 0 mm 1 mps 693 mmHg 45%

    28 February, Friday

    Time Temperature Precipitation Wind Pressure Humidity
    00:00 +15°C° 0 mm 1 mps 693 mmHg 44%
    01:00 +14°C° 0 mm 1 mps 693 mmHg 43%
    02:00 +14°C° 0 mm 1 mps 692 mmHg 42%
    03:00 +14°C° 0 mm 1 mps 692 mmHg 42%
    04:00 +13°C° 0 mm 1 mps 692 mmHg 42%
    05:00 +13°C° 0 mm 1 mps 691 mmHg 43%
    06:00 +14°C° 0 mm 2 mps 692 mmHg 40%
    07:00 +15°C° 0 mm 2 mps 692 mmHg 38%
    08:00 +16°C° 0 mm 2 mps 693 mmHg 35%
    09:00 +17°C° 0 mm 3 mps 693 mmHg 32%
    10:00 +19°C° 0 mm 4 mps 693 mmHg 30%
    11:00 +20°C° 0 mm 4 mps 693 mmHg 27%
    12:00 +20°C° 0 mm 5 mps 693 mmHg 26%
    13:00 +21°C° 0 mm 5 mps 692 mmHg 25%
    14:00 +21°C° 0 mm 6 mps 692 mmHg 24%
    15:00 +20°C° 0 mm 7 mps 692 mmHg 28%
    16:00 +18°C° 0 mm 7 mps 692 mmHg 32%
    17:00 +17°C° 0 mm 8 mps 692 mmHg 36%
    18:00 +16°C° 0 mm 8 mps 692 mmHg 50%
    19:00 +14°C° 0 mm 7 mps 693 mmHg 65%
    20:00 +11°C° 0 mm 7 mps 693 mmHg 79%
    21:00 +10°C° 0 mm 6 mps 693 mmHg 79%
    22:00 +10°C° 0 mm 6 mps 693 mmHg 79%
    23:00 +9°C° 0 mm 5 mps 693 mmHg 79%

    29 February, Saturday

    Time Temperature Precipitation Wind Pressure Humidity
    00:00 +9°C° 0 mm 5 mps 693 mmHg 77%
    01:00 +9°C° 0 mm 6 mps 693 mmHg 74%
    02:00 +9°C° 0 mm 6 mps 693 mmHg 71%
    03:00 +8°C° 0 mm 6 mps 693 mmHg 71%
    04:00 +7°C° 0 mm 6 mps 693 mmHg 70%
    05:00 +7°C° 0 mm 6 mps 693 mmHg 69%
    06:00 +7°C° 0 mm 6 mps 693 mmHg 67%
    07:00 +7°C° 0 mm 6 mps 693 mmHg 66%
    08:00 +7°C° 0 mm 5 mps 694 mmHg 64%
    09:00 +8°C° 0 mm 6 mps 694 mmHg 58%
    10:00 +9°C° 0 mm 6 mps 694 mmHg 52%
    11:00 +11°C° 0 mm 6 mps 694 mmHg 46%
    12:00 +11°C° 0 mm 6 mps 694 mmHg 44%
    13:00 +13°C° 0 mm 6 mps 694 mmHg 42%
    14:00 +14°C° 0 mm 7 mps 694 mmHg 40%
    15:00 +12°C° 0 mm 7 mps 694 mmHg 42%
    16:00 +12°C° 0 mm 7 mps 694 mmHg 45%
    17:00 +11°C° 0 mm 7 mps 694 mmHg 47%
    18:00 +10°C° 0 mm 6 mps 694 mmHg 52%
    19:00 +10°C° 0 mm 5 mps 694 mmHg 56%
    20:00 +10°C° 0 mm 4 mps 694 mmHg 60%
    21:00 +9°C° 0 mm 3 mps 695 mmHg 63%
    22:00 +9°C° 0 mm 3 mps 695 mmHg 67%
    23:00 +8°C° 0 mm 2 mps 695 mmHg 71%
    Show more